Wind_Speed
28 31 31 30 29 26 23 23 24 25 25 21 19 18 18 16 15 13 13 9 4 7 7 7 11 12 12 8 8 12 12 13 11 14 19 16 14 11 8 10 12 15 12
32 33 32 31 29 28 26 25 23 25 24 21 19 17 16 16 15 14 10 9 3 4 13 14 15 15 14 14 15 14 17 17 18 19 18 17 17 16 16 15 14 17 17
33 34 33 31 30 29 28 24 24 24 25 22 19 18 17 16 15 14 10 6 6 4 9 15 17 18 19 18 16 16 16 16 19 17 20 17 18 20 22 22 22 23 21
35 35 33 30 29 29 25 24 25 25 24 24 21 20 17 17 15 14 11 10 6 6 8 13 19 19 21 18 18 20 19 17 18 20 20 16 14 15 17 19 21 21 18
34 31 28 24 24 25 23 25 27 25 23 22 23 22 21 18 18 16 14 11 11 10 9 13 16 20 21 21 20 20 17 15 15 16 19 19 18 19 18 16 17 15 16
29 29 26 25 25 26 27 29 28 28 29 28 26 25 26 22 20 18 16 15 14 13 12 11 17 19 22 23 21 23 22 15 18 16 17 20 20 20 20 18 16 16 16
28 27 26 26 27 28 29 30 32 34 35 34 31 27 26 27 24 21 18 17 16 16 14 14 15 20 21 23 23 22 23 24 22 21 20 20 18 18 18 17 16 17 16
28 27 26 27 28 30 30 32 35 38 39 36 32 28 27 25 27 24 22 20 19 18 17 16 16 19 22 23 24 23 20 19 22 19 21 20 19 18 19 20 20 20 18
27 27 26 26 28 30 34 37 40 43 43 40 33 31 30 28 28 25 22 19 22 20 18 17 17 18 20 19 19 21 20 18 19 19 19 20 21 21 21 19 18 17 16
31 31 33 34 37 40 43 45 45 44 45 40 34 34 33 29 26 26 21 20 20 22 21 17 17 18 19 18 19 19 20 20 19 18 17 18 20 19 16 15 15 16 16
36 37 39 41 43 45 47 45 40 39 37 35 35 35 33 32 28 29 24 19 19 23 23 19 17 18 20 19 19 17 15 13 13 13 14 13 18 17 13 14 15 16 16
39 41 42 43 46 45 41 37 36 36 36 35 34 33 33 30 27 31 27 22 18 18 27 24 19 18 20 21 20 17 16 14 11 9 8 12 16 16 14 15 17 17 17
38 39 41 45 43 39 36 32 29 30 30 30 31 33 33 35 31 27 23 24 24 18 29 23 24 22 22 20 18 18 16 14 12 10 9 8 10 12 15 17 17 18 18
37 39 43 42 37 35 30 26 26 26 27 25 23 26 32 34 33 34 31 17 24 18 12 27 25 28 25 22 21 18 16 15 15 12 9 9 8 9 11 13 16 17 18
38 41 42 39 34 28 23 20 20 21 22 27 27 25 27 28 35 35 29 24 23 24 20 23 29 30 31 27 24 22 20 18 18 17 17 14 13 13 13 14 15 17 19
40 40 38 34 28 22 20 18 18 18 20 23 23 21 22 23 27 28 33 36 35 30 25 25 29 29 32 31 29 29 27 24 23 23 23 19 17 17 16 17 19 19 20
42 38 34 27 23 22 20 18 17 17 17 17 19 23 22 22 24 23 22 24 29 32 31 30 29 31 35 35 36 34 34 34 33 31 30 24 24 23 22 23 22 22 24
40 34 29 26 25 23 21 20 18 18 17 16 17 21 26 29 31 32 30 26 25 27 36 37 35 35 39 40 36 40 39 37 38 37 32 31 29 29 31 30 29 29 29
37 31 30 28 27 26 24 22 21 20 21 20 20 20 21 22 27 33 39 36 30 31 27 30 40 40 40 40 46 41 41 40 41 40 40 40 38 37 36 36 36 36 34
35 32 32 29 29 28 25 23 22 21 21 21 23 24 24 23 21 23 26 30 34 36 36 32 31 41 45 42 37 46 49 46 43 43 42 42 40 40 41 41 40 40 40
33 33 33 31 32 31 29 28 27 28 28 27 25 24 26 27 27 26 25 28 29 30 30 33 41 40 38 45 46 41 39 53 51 48 45 46 46 45 45 46 46 45 43
33 32 32 33 35 36 35 33 33 33 32 32 31 30 29 29 31 32 33 32 32 32 32 31 31 39 42 39 42 47 48 47 46 44 55 59 54 47 50 50 48 46 45
34 34 34 34 35 35 35 35 35 35 35 35 35 35 35 34 33 34 36 36 35 34 32 31 29 35 44 45 38 38 42 49 53 51 45 54 57 51 50 54 50 47 45
38 37 36 36 37 37 36 36 38 39 39 40 40 40 39 38 36 35 36 36 35 34 32 32 31 29 38 46 45 42 40 39 44 49 51 49 54 53 53 51 55 55 54
41 41 41 41 40 40 41 41 42 43 44 44 44 43 41 40 39 38 37 37 36 34 34 32 33 34 32 32 40 46 44 45 46 41 47 50 55 54 56 57 57 57 53
44 45 45 45 45 44 44 44 44 43 43 42 42 40 40 39 38 38 38 38 38 38 37 36 34 34 36 36 33 33 34 43 45 43 44 44 47 51 54 54 52 55 56
Wind_Direction
279 286 291 288 288 295 300 302 310 312 316 321 325 329 331 335 342 3 19 31 81 197 171 164 197 209 207 208 206 196 201 218 234 229 241 247 250 246 240 207 235 242 256
280 285 286 283 284 290 294 297 304 304 307 311 319 318 321 324 324 338 359 3 35 172 217 192 186 197 202 206 207 212 218 221 232 227 239 239 240 235 224 239 251 262 261
278 282 279 278 279 283 288 293 296 297 300 303 308 311 307 309 313 316 327 345 330 224 204 227 223 214 221 219 227 231 233 234 236 235 231 237 244 251 253 251 260 258 263
278 276 272 272 274 277 282 287 290 291 292 295 300 302 300 299 301 298 301 308 306 279 228 213 227 231 223 224 233 224 229 235 238 239 244 249 250 257 257 257 255 251 250
271 265 264 264 267 270 276 282 286 289 288 289 292 292 295 293 292 290 282 281 293 288 252 225 220 228 223 220 234 235 234 225 232 227 225 231 244 245 252 261 253 246 242
259 258 260 261 263 268 276 278 278 282 286 285 283 287 289 290 286 281 276 269 274 282 277 247 221 221 228 227 225 226 224 227 227 220 219 231 238 245 248 241 242 230 235
254 257 260 264 267 272 275 279 282 282 282 281 283 285 285 282 282 279 267 260 265 273 277 271 237 220 225 223 218 226 233 239 241 239 228 230 236 235 229 234 235 235 243
255 258 263 268 273 276 280 282 282 280 279 279 280 279 277 276 274 275 269 249 248 261 271 270 258 228 220 223 230 236 230 232 230 226 225 218 220 230 233 235 239 244 244
251 255 260 267 277 287 289 285 284 279 276 273 267 267 269 271 270 269 265 274 245 244 260 266 260 234 220 222 231 231 221 218 223 215 214 217 226 236 233 231 232 235 221
248 253 259 269 277 282 284 285 284 275 272 272 267 265 262 265 273 278 257 261 269 233 243 256 252 232 222 215 215 216 217 210 208 203 207 211 221 222 207 194 186 186 202
256 263 272 277 280 283 287 288 282 275 273 272 268 261 262 261 261 271 247 248 257 243 231 240 241 230 217 205 204 204 210 210 207 198 202 210 192 187 209 218 219 218 219
265 271 275 279 283 287 287 283 276 273 269 265 259 260 256 254 247 258 249 233 251 263 226 229 228 220 216 210 208 208 210 204 202 193 197 206 211 219 234 233 226 221 221
270 276 280 286 289 289 285 280 274 271 269 266 262 259 258 255 254 258 249 243 244 243 227 242 216 224 218 223 226 219 216 215 222 214 208 211 224 234 236 234 231 229 225
277 281 284 287 286 282 277 274 272 273 270 264 261 260 256 251 250 250 254 245 239 243 236 230 245 216 229 222 217 217 221 224 226 234 234 245 248 243 241 243 242 239 236
281 283 285 284 279 273 266 264 268 270 267 259 266 260 252 257 252 250 238 245 240 244 256 266 236 243 225 223 222 222 226 227 233 237 242 239 258 270 269 254 244 246 248
281 283 280 274 265 255 255 260 266 272 276 269 261 256 253 258 258 260 255 249 245 236 236 252 240 239 240 231 225 222 229 233 235 241 241 242 246 249 264 269 264 261 258
279 279 272 257 247 250 254 258 265 269 273 273 250 245 249 255 255 260 256 255 251 245 243 237 243 254 238 238 236 234 230 230 231 244 232 235 239 249 252 259 265 269 273
271 268 251 242 245 245 248 254 259 264 270 271 269 261 253 253 253 257 256 259 248 245 247 245 240 242 249 239 240 237 240 243 237 237 240 241 244 252 255 252 261 265 266
263 253 238 239 242 246 250 255 259 263 265 267 268 268 270 270 266 257 250 253 256 247 248 246 242 242 248 255 240 237 236 238 241 240 243 242 243 248 251 255 261 263 264
252 244 239 239 242 244 248 253 259 263 266 267 267 268 269 271 273 264 248 249 254 258 262 250 257 248 243 247 247 243 239 237 241 242 244 241 245 250 255 257 261 264 266
247 244 241 242 244 247 250 254 259 263 265 268 270 269 266 265 266 264 258 256 257 260 266 261 251 251 254 250 246 251 247 243 240 246 248 247 246 249 251 253 257 260 260
248 247 246 247 248 250 253 255 257 259 261 263 266 269 270 266 262 263 264 264 264 267 269 275 265 246 244 250 251 249 249 249 249 251 251 245 249 251 253 251 254 257 257
252 252 250 249 250 252 254 255 256 257 259 261 263 265 268 266 263 261 261 263 265 266 266 268 274 253 239 245 248 253 253 252 251 255 260 247 245 250 255 247 249 253 255
255 256 255 255 255 256 258 259 261 262 264 266 266 267 266 263 261 260 261 262 264 265 265 262 261 263 256 250 252 253 257 257 254 254 252 252 251 255 254 258 251 254 259
257 258 259 260 262 263 263 263 263 264 264 265 265 264 262 260 259 258 258 260 262 264 266 265 261 259 260 260 258 258 257 259 257 259 253 254 251 256 253 258 253 254 258
262 265 267 269 270 270 269 267 265 264 263 262 261 259 256 256 256 258 258 259 260 261 262 264 265 263 261 260 260 257 257 257 257 258 261 257 255 253 254 255 261 257 254
Height
5741 5740 5739 5738 5738 5737 5737 5736 5735 5734 5732 5731 5728 5726 5724 5722 5720 5718 5715 5713 5712 5714 5714 5713 5714 5714 5715 5715 5716 5717 5719 5721 5723 5726 5728 5729 5729 5731 5734 5737 5739 5740 5741
5733 5733 5732 5732 5732 5732 5731 5730 5731 5729 5727 5726 5725 5723 5721 5720 5718 5717 5715 5713 5709 5709 5712 5712 5712 5712 5713 5714 5714 5716 5718 5720 5722 5723 5725 5726 5727 5729 5732 5733 5735 5736 5736
5725 5725 5725 5725 5726 5725 5725 5724 5725 5724 5723 5721 5720 5719 5717 5716 5715 5714 5713 5710 5710 5707 5707 5709 5710 5710 5711 5711 5711 5712 5713 5715 5717 5720 5721 5723 5724 5725 5726 5728 5729 5731 5732
5716 5716 5717 5718 5719 5718 5718 5718 5718 5718 5718 5716 5715 5714 5713 5712 5711 5711 5710 5710 5706 5704 5703 5703 5705 5706 5706 5709 5709 5708 5708 5709 5710 5712 5713 5716 5717 5718 5720 5722 5723 5725 5727
5707 5707 5709 5711 5711 5711 5711 5711 5712 5712 5712 5710 5709 5709 5708 5707 5707 5706 5706 5705 5705 5702 5700 5699 5699 5701 5703 5704 5706 5706 5705 5705 5706 5707 5709 5712 5714 5715 5716 5717 5718 5720 5722
5698 5700 5702 5703 5703 5703 5703 5704 5704 5705 5705 5704 5703 5703 5702 5703 5701 5701 5700 5700 5699 5699 5697 5695 5695 5695 5698 5699 5701 5703 5704 5703 5703 5703 5705 5708 5709 5711 5712 5713 5714 5715 5717
5691 5692 5694 5695 5695 5696 5696 5697 5698 5698 5698 5696 5697 5697 5696 5696 5696 5695 5694 5695 5694 5693 5693 5692 5690 5690 5692 5695 5696 5698 5699 5700 5699 5699 5700 5702 5704 5706 5707 5709 5710 5711 5712
5684 5685 5686 5687 5688 5688 5688 5689 5689 5689 5688 5688 5688 5689 5689 5688 5688 5688 5687 5687 5688 5688 5687 5687 5686 5685 5686 5690 5692 5694 5694 5695 5695 5695 5696 5697 5700 5702 5703 5704 5705 5706 5707
5676 5677 5678 5679 5680 5680 5680 5680 5678 5677 5677 5677 5678 5679 5680 5680 5680 5680 5680 5680 5680 5681 5682 5681 5681 5681 5682 5684 5687 5689 5689 5690 5692 5691 5692 5694 5696 5697 5698 5700 5701 5704 5706
5666 5667 5669 5670 5671 5670 5669 5668 5667 5666 5665 5666 5668 5669 5669 5671 5671 5672 5671 5673 5673 5674 5675 5676 5677 5677 5677 5679 5682 5685 5686 5687 5688 5689 5689 5690 5692 5694 5695 5697 5699 5701 5704
5657 5659 5659 5659 5659 5658 5656 5655 5653 5653 5654 5656 5657 5658 5660 5661 5662 5664 5664 5665 5666 5666 5668 5671 5672 5673 5673 5675 5678 5680 5683 5685 5686 5687 5687 5688 5690 5692 5694 5696 5698 5700 5702
5649 5649 5649 5648 5647 5646 5644 5642 5641 5642 5643 5644 5647 5648 5650 5651 5653 5654 5655 5657 5658 5659 5662 5664 5666 5668 5670 5673 5675 5677 5678 5681 5683 5683 5684 5685 5688 5690 5692 5693 5695 5696 5698
5638 5639 5638 5637 5636 5634 5632 5631 5631 5632 5633 5634 5635 5638 5640 5642 5644 5644 5646 5648 5651 5653 5654 5656 5659 5663 5665 5668 5670 5672 5675 5676 5679 5681 5682 5683 5684 5686 5687 5688 5690 5692 5694
5628 5628 5627 5626 5624 5624 5623 5623 5623 5623 5624 5625 5627 5629 5630 5631 5633 5636 5639 5640 5644 5645 5649 5651 5653 5655 5659 5662 5665 5668 5670 5673 5675 5677 5678 5680 5681 5682 5683 5684 5686 5687 5690
5617 5617 5616 5615 5614 5613 5614 5614 5616 5616 5617 5617 5619 5621 5622 5623 5624 5627 5632 5634 5636 5639 5641 5644 5647 5649 5652 5656 5659 5662 5665 5667 5670 5672 5673 5675 5677 5678 5679 5679 5681 5683 5684
5606 5605 5606 5606 5605 5606 5607 5607 5609 5609 5609 5610 5612 5613 5615 5616 5617 5618 5621 5625 5629 5630 5633 5636 5637 5641 5645 5648 5651 5654 5658 5661 5664 5666 5667 5668 5670 5672 5674 5675 5675 5676 5677
5595 5596 5596 5596 5597 5599 5601 5602 5602 5603 5603 5603 5604 5606 5608 5610 5611 5613 5614 5616 5618 5622 5624 5627 5630 5632 5635 5639 5642 5645 5649 5652 5655 5657 5658 5661 5663 5664 5666 5668 5669 5670 5671
5585 5586 5587 5589 5592 5593 5594 5595 5596 5596 5597 5597 5599 5600 5601 5602 5603 5604 5607 5608 5611 5612 5614 5617 5619 5622 5624 5628 5631 5635 5637 5640 5643 5646 5649 5652 5654 5656 5657 5659 5661 5662 5663
5575 5577 5579 5581 5584 5586 5587 5588 5589 5589 5591 5591 5593 5594 5593 5593 5593 5593 5596 5599 5602 5604 5605 5607 5609 5611 5614 5616 5620 5623 5626 5630 5633 5636 5639 5642 5644 5646 5648 5650 5651 5652 5654
5564 5567 5569 5571 5575 5578 5579 5581 5581 5582 5584 5584 5585 5586 5586 5586 5585 5586 5587 5589 5592 5594 5596 5598 5600 5601 5604 5607 5609 5612 5615 5617 5621 5624 5627 5630 5633 5635 5637 5639 5641 5642 5643
5555 5557 5559 5562 5565 5569 5570 5572 5572 5574 5576 5576 5577 5578 5579 5579 5579 5579 5580 5582 5583 5584 5585 5585 5588 5590 5591 5594 5597 5600 5603 5606 5609 5612 5615 5617 5620 5623 5624 5626 5628 5630 5631
5545 5548 5549 5552 5555 5557 5559 5561 5563 5565 5566 5567 5568 5568 5569 5570 5570 5570 5571 5572 5573 5573 5573 5573 5574 5576 5579 5582 5584 5587 5591 5593 5596 5599 5601 5603 5606 5609 5611 5613 5616 5617 5619
5535 5538 5540 5542 5544 5546 5548 5549 5552 5553 5555 5556 5557 5557 5559 5559 5559 5559 5560 5561 5562 5562 5563 5563 5562 5563 5566 5569 5571 5573 5576 5578 5581 5583 5585 5588 5592 5595 5596 5599 5602 5604 5606
5525 5527 5530 5532 5533 5535 5536 5538 5540 5541 5542 5543 5544 5545 5546 5547 5548 5548 5549 5550 5551 5551 5552 5553 5554 5554 5554 5556 5558 5560 5562 5563 5566 5568 5571 5574 5578 5581 5583 5585 5588 5590 5591
5514 5516 5518 5520 5521 5523 5524 5525 5527 5528 5529 5529 5530 5531 5532 5533 5534 5536 5537 5538 5539 5540 5541 5541 5542 5543 5544 5544 5545 5546 5547 5550 5552 5553 5555 5558 5561 5564 5567 5570 5572 5575 5576
5501 5503 5505 5506 5507 5508 5509 5511 5512 5513 5514 5515 5516 5517 5518 5520 5521 5523 5524 5526 5527 5528 5529 5530 5530 5531 5532 5533 5533 5534 5534 5536 5537 5539 5541 5543 5545 5548 5551 5553 5555 5557 5560